Probability
0 0 0 0 0 0 0 0 0 0 0 0 0 0 0 0 0 0 0 0 0 0 0 0 0 0 0 1 2 2 2 1 2 3 3 3 4 6 7 4 1 1 2 4 6 4 1 0 0
0 0 0 0 0 0 0 0 0 0 0 0 0 0 0 0 0 0 0 0 0 0 0 0 0 0 0 0 1 1 1 0 1 2 2 3 5 6 7 5 2 1 1 3 3 2 0 0 0
0 0 0 0 0 0 0 0 0 0 0 0 0 0 0 0 0 0 0 0 0 0 0 0 0 0 0 0 0 0 0 0 0 0 1 2 4 6 8 8 5 2 1 2 2 1 0 0 0
0 0 0 0 0 0 0 0 0 0 0 0 0 0 0 0 0 0 0 0 0 0 0 0 0 0 0 0 0 0 0 0 0 0 0 0 2 5 7 8 7 4 3 2 1 0 0 0 0
0 0 0 0 0 0 0 0 0 0 0 0 0 0 0 0 0 0 0 0 0 0 0 0 0 0 0 1 0 0 0 0 0 0 0 0 1 3 4 5 6 6 4 2 1 1 1 1 0
0 0 0 0 0 0 0 0 0 0 0 0 0 0 0 0 0 0 1 1 0 0 0 0 0 0 0 0 0 0 0 0 0 0 0 0 1 2 2 3 4 5 4 2 1 1 1 1 1
0 0 0 0 0 0 0 0 0 0 0 0 0 0 0 0 0 0 1 1 0 0 0 0 0 0 0 0 0 0 0 0 0 0 0 0 0 1 1 1 1 3 3 2 1 0 1 1 0
1 0 0 0 0 0 0 0 0 0 0 0 0 0 0 0 0 0 0 0 0 0 0 0 0 0 0 0 0 0 0 0 0 0 0 0 0 0 0 0 0 1 3 2 1 0 0 0 0
2 1 0 0 0 0 0 0 0 0 0 0 0 0 0 0 0 0 0 0 0 0 0 0 0 0 0 0 0 0 0 0 0 0 0 0 0 0 0 0 0 0 1 1 0 0 0 0 0
2 1 0 0 0 0 0 0 0 0 0 0 0 0 0 0 0 0 0 0 0 0 0 0 0 0 0 0 0 0 0 0 0 0 0 0 0 0 0 0 0 0 0 0 0 1 1 0 0
1 0 0 0 0 0 0 0 0 0 0 0 0 0 1 1 1 0 0 0 0 0 0 0 0 0 0 0 0 0 0 0 0 0 0 0 0 0 0 0 0 0 0 0 0 1 1 0 0
0 0 0 0 0 0 0 0 0 0 0 0 0 1 2 2 2 1 0 0 0 0 0 0 0 0 0 0 0 0 0 0 0 0 0 0 0 0 0 0 0 0 0 0 0 1 1 0 0
0 0 0 0 0 0 0 0 0 0 0 0 0 1 3 3 3 1 0 0 0 0 0 0 0 0 0 0 0 0 0 0 0 0 0 0 0 0 0 0 0 0 0 0 0 0 0 0 0
0 0 0 0 0 0 0 0 0 0 0 0 1 2 3 3 3 2 1 0 0 0 0 0 0 0 0 0 0 0 0 0 0 0 0 0 0 0 0 0 0 0 0 0 0 0 0 0 0
0 0 0 0 0 0 0 0 0 0 0 0 1 2 3 3 3 3 2 1 0 0 0 0 0 0 0 0 0 0 0 0 0 0 0 0 0 0 0 0 0 0 0 0 0 0 0 0 0
0 0 0 0 0 0 0 0 0 0 0 0 1 2 3 2 2 3 2 1 0 0 0 0 0 0 0 0 0 0 0 0 0 0 0 0 0 0 0 0 0 0 0 0 0 0 0 0 0
0 0 0 0 0 0 0 0 0 0 0 0 1 2 3 2 2 3 2 1 0 0 0 0 0 0 0 0 0 0 0 0 0 0 0 0 0 0 0 0 0 0 0 0 0 0 0 0 0
0 0 0 0 0 0 0 0 0 0 0 0 1 2 3 3 3 3 2 1 0 0 0 0 0 0 0 0 0 0 0 0 0 0 0 0 0 0 0 0 0 0 0 0 0 0 0 0 0
0 0 0 0 0 0 0 0 0 0 0 0 0 1 3 3 3 3 2 1 0 0 0 0 0 0 0 0 0 0 0 0 0 0 0 0 0 0 0 0 0 0 0 0 0 0 0 0 0
0 0 0 0 0 0 0 0 0 0 0 0 0 1 2 3 3 3 2 1 0 0 0 0 0 0 0 0 0 0 0 0 0 0 0 0 0 0 0 0 0 0 0 0 0 0 0 0 0
0 0 0 0 0 0 0 0 0 0 0 0 0 1 2 3 3 3 3 1 0 0 0 0 0 0 0 0 0 0 0 0 0 0 0 0 0 0 0 0 0 0 0 0 0 0 0 0 0
0 0 0 0 0 0 0 0 0 0 0 0 0 0 1 3 3 3 3 2 1 0 0 0 0 0 0 0 0 0 0 0 0 0 0 0 0 0 0 0 0 0 0 0 0 0 0 0 0
0 0 0 0 0 0 0 0 0 0 0 0 0 0 1 2 3 3 3 2 1 0 0 0 0 0 0 0 0 0 0 0 0 0 0 0 0 0 0 0 0 0 0 0 0 0 0 0 0
0 0 0 0 0 0 0 0 0 0 0 0 0 0 0 1 3 3 3 2 1 0 0 0 0 0 0 0 0 0 0 0 0 0 0 0 0 0 0 0 0 0 0 0 0 0 0 0 0
0 0 0 0 0 0 0 0 0 0 0 0 0 0 0 1 2 3 3 3 1 0 0 0 0 0 0 0 0 0 0 0 0 0 0 0 0 0 0 0 0 0 0 0 0 0 0 0 0
0 0 0 0 0 0 0 0 0 0 0 0 0 0 0 1 2 2 3 3 2 1 0 0 0 0 0 0 0 0 0 0 0 0 0 0 0 0 0 0 0 0 0 0 0 0 0 0 0
0 0 0 0 0 0 0 0 0 0 0 0 0 0 0 0 1 1 1 2 2 1 0 0 0 0 0 0 0 0 0 0 0 0 0 0 0 0 0 0 0 0 0 0 0 0 0 0 0
0 0 0 0 0 0 0 0 0 0 0 0 0 0 0 0 0 0 0 1 1 0 0 0 0 0 0 0 0 0 0 0 0 0 0 0 0 0 0 0 0 0 0 0 0 0 0 0 0
0 0 0 0 0 0 0 0 0 0 0 0 0 0 0 0 0 0 0 0 0 0 0 0 0 0 0 0 0 0 0 0 0 0 0 0 0 0 0 0 0 0 0 0 0 0 0 0 0
0 0 0 0 0 0 0 0 0 0 0 0 0 0 0 0 0 0 0 0 0 0 0 0 0 0 0 0 0 0 0 0 0 0 0 0 0 0 0 0 0 0 0 0 0 0 0 0 0
Wind_Speed
6 3 3 2 2 1 1 2 1 1 0 2 6 9 8 5 4 5 2 8 10 8 6 8 10 9 8 7 7 6 6 5 4 4 4 4 3 3 3 3 3 2 3 3 3 3 3 3 3
4 3 1 2 2 0 2 2 2 2 3 5 6 7 7 5 5 6 4 9 11 9 7 7 10 9 8 7 6 6 5 4 4 3 3 2 2 1 1 1 1 1 1 2 2 2 2 2 2
4 2 1 2 1 2 3 3 3 1 0 2 4 5 5 5 5 5 7 12 10 8 6 8 11 9 8 7 6 5 4 3 3 2 2 1 1 0 1 1 1 1 1 2 2 2 2 2 1
3 1 1 1 2 3 4 4 3 1 2 3 6 5 4 3 5 7 11 12 11 8 6 7 11 10 8 7 6 4 3 2 1 1 1 1 2 2 2 2 2 2 2 3 3 3 3 3 2
2 2 1 1 3 2 2 3 2 1 2 3 7 6 3 2 8 12 12 11 11 7 6 7 11 10 9 7 6 4 3 2 1 1 2 2 2 3 3 3 3 3 3 4 4 3 4 4 3
2 2 1 2 2 1 3 3 1 2 3 5 7 6 3 3 8 10 11 10 10 9 7 6 11 10 8 7 5 4 2 1 1 2 3 3 4 4 4 5 5 4 5 5 5 5 5 5 5
3 2 2 2 2 1 3 3 3 3 3 5 7 6 4 3 6 9 10 9 8 8 7 5 5 6 8 8 6 5 3 2 2 3 4 4 5 6 6 6 6 6 6 6 6 7 6 6 7
3 3 1 1 2 3 3 2 3 4 2 5 6 8 6 7 7 8 8 7 7 6 6 5 4 4 3 4 6 5 3 2 3 4 5 6 6 6 7 7 7 8 7 7 7 7 8 8 8
3 2 2 3 4 3 3 2 1 2 3 3 3 6 9 11 9 8 6 5 5 6 5 5 4 4 3 3 4 3 2 2 3 4 6 5 3 3 4 6 8 8 8 8 8 8 8 8 7
3 3 4 3 3 3 3 3 2 3 4 3 4 6 11 11 10 9 8 7 6 6 5 4 4 4 3 3 1 0 1 1 2 2 3 2 2 2 3 5 6 6 7 7 7 8 7 5 2
4 4 2 2 2 3 2 3 1 6 3 7 10 12 12 11 9 9 8 7 7 6 5 5 5 4 4 2 1 0 0 1 1 2 1 1 2 2 2 2 3 3 4 2 3 4 2 2 2
2 2 2 3 3 3 3 2 1 5 7 10 14 15 13 12 11 10 9 8 6 6 5 5 5 4 3 2 1 1 0 0 0 1 1 1 1 2 2 1 2 2 1 1 1 1 2 2 2
2 2 3 4 4 4 3 2 1 3 6 10 12 13 12 12 10 9 9 8 7 7 6 6 6 5 3 3 1 2 1 1 1 1 2 2 1 2 2 2 2 2 1 1 1 1 2 2 2
1 1 2 3 4 3 3 4 1 4 7 11 13 13 12 11 11 9 9 8 8 7 6 5 6 5 4 3 2 1 1 1 1 2 2 2 2 2 2 2 2 2 2 1 1 1 1 1 1
2 3 4 2 3 2 2 4 4 6 8 11 12 12 11 10 11 12 11 10 10 9 7 7 6 5 5 4 3 2 1 2 1 1 2 3 3 2 2 2 2 2 2 2 1 2 1 1 1
4 3 2 3 2 1 1 5 7 4 7 9 10 9 10 10 10 10 11 10 10 9 7 6 7 6 5 4 3 2 2 2 1 1 2 3 3 2 2 2 2 3 2 2 1 1 1 1 1
4 1 2 4 2 1 2 6 7 4 7 9 10 9 9 8 7 8 10 11 11 10 8 7 7 6 5 4 3 2 2 2 1 1 1 2 2 2 2 1 2 2 2 2 2 1 1 1 2
2 1 2 4 3 2 3 8 10 6 7 8 9 9 8 9 9 8 9 11 10 9 8 8 7 6 5 3 3 2 2 1 1 0 0 1 1 2 2 1 2 2 2 2 1 1 1 1 1
3 2 3 5 4 3 7 10 11 8 6 7 7 8 9 10 7 7 8 9 9 8 8 8 7 5 4 2 2 1 0 0 1 1 1 0 1 1 1 1 2 2 1 1 1 1 1 2 1
2 2 4 4 3 4 6 9 9 7 9 9 10 11 11 8 6 8 8 8 9 9 8 7 7 6 5 3 2 2 1 1 1 1 1 1 1 1 1 1 1 1 1 2 2 1 1 1 2
3 5 4 3 3 3 2 7 6 5 4 5 8 9 10 12 13 11 9 8 9 9 9 9 7 6 5 4 3 2 2 2 2 1 2 2 1 1 1 1 1 1 0 1 1 1 1 1 1
4 6 4 2 2 3 1 3 8 4 1 4 6 7 9 10 11 11 10 9 10 9 8 8 8 7 6 5 4 3 2 1 2 2 2 2 2 1 1 1 0 0 0 0 1 1 1 2 1
6 4 2 0 1 3 2 1 8 3 1 4 6 7 8 10 13 13 12 11 9 9 9 8 8 6 5 5 5 4 2 2 1 1 1 1 2 2 1 1 1 1 0 0 1 1 1 1 1
2 3 4 4 4 2 3 2 5 4 5 4 5 6 7 9 10 10 9 8 7 7 8 8 8 6 5 5 5 5 4 2 1 0 1 1 1 2 2 1 1 0 0 0 0 1 1 1 1
4 6 5 6 5 5 3 1 6 6 4 5 6 6 6 9 10 10 10 9 9 9 9 8 9 7 6 5 5 5 5 4 3 2 1 1 1 1 2 1 1 1 1 0 1 1 1 1 1
2 7 6 3 2 5 4 1 6 5 2 1 3 5 6 8 9 11 12 11 10 10 10 9 9 7 6 6 5 5 4 3 3 3 2 2 2 2 2 2 1 1 0 1 1 1 1 1 1
3 2 5 6 0 2 4 4 6 3 3 1 2 4 6 8 10 11 10 10 10 11 10 10 10 7 7 7 6 4 4 4 4 3 2 2 2 2 1 1 1 1 0 1 1 1 0 0 1
5 6 5 4 2 1 5 3 4 4 4 3 3 5 6 7 8 9 9 10 10 10 9 9 9 9 8 7 6 5 5 5 4 3 3 3 2 2 1 1 1 1 1 1 1 0 1 0 0
0 1 4 4 4 4 1 6 6 6 6 6 7 7 7 8 9 9 9 9 9 8 8 8 8 7 7 7 6 5 5 5 4 3 4 3 2 2 2 2 2 2 1 1 1 1 0 0 0
4 4 5 4 2 4 3 8 7 4 5 5 6 6 6 7 8 9 9 8 8 8 8 8 8 8 8 7 7 6 5 4 4 4 4 4 3 2 3 2 2 2 2 1 1 1 1 1 1
Wind_Direction
188 137 103 82 66 41 278 271 230 250 257 54 83 87 86 71 89 132 179 144 136 137 139 135 131 129 126 123 119 112 108 106 106 105 99 96 100 104 103 102 104 109 111 109 110 109 104 100 90
154 136 97 72 92 94 260 252 208 204 161 124 91 88 83 80 93 115 128 139 136 137 138 135 133 130 128 124 117 110 103 98 95 94 94 92 96 96 107 124 131 148 151 145 153 148 137 128 110
160 160 126 92 151 204 221 241 216 228 216 115 88 64 82 113 122 135 148 142 136 135 137 139 135 130 126 123 119 114 107 100 89 79 80 67 38 357 301 273 249 217 214 194 192 194 191 183 173
139 85 59 89 233 234 206 234 223 196 61 76 102 73 61 110 139 141 141 139 136 140 140 143 137 133 130 127 124 118 110 100 78 38 340 298 298 299 296 290 276 251 245 237 227 217 218 221 226
83 96 52 274 254 253 232 233 219 137 91 93 99 92 67 68 118 133 140 141 141 145 148 149 144 142 139 137 135 129 117 89 28 340 327 315 299 290 286 285 279 271 263 251 242 237 230 232 245
72 81 106 255 258 272 268 237 173 122 113 111 107 109 121 141 129 138 143 146 147 151 158 157 154 153 152 151 151 150 150 145 351 330 317 304 301 293 281 275 275 267 263 258 252 246 237 238 246
132 127 201 208 200 254 251 241 174 153 144 146 129 109 138 169 146 139 142 145 149 152 154 160 163 163 163 164 165 170 182 210 270 304 308 297 295 298 293 279 270 267 264 262 259 254 248 249 251
154 127 226 209 177 226 246 219 163 154 144 130 125 136 168 191 154 135 134 138 147 153 156 166 172 170 172 182 183 187 199 228 271 290 298 299 302 305 299 287 272 268 268 267 266 261 255 255 256
119 95 211 209 186 219 233 197 147 104 94 68 109 156 165 157 141 128 124 128 147 158 164 165 169 170 179 197 202 198 218 262 293 307 305 308 309 307 300 288 273 264 267 270 271 267 262 257 258
130 168 220 215 190 192 239 189 171 90 76 68 76 108 138 147 148 149 154 160 164 171 172 163 163 164 174 196 167 227 267 297 306 304 310 314 310 309 311 298 288 273 273 277 274 271 267 263 255
171 195 228 267 240 226 226 232 210 128 154 175 159 155 158 159 163 167 171 172 175 169 161 157 157 157 158 159 157 177 274 313 323 321 325 341 349 344 348 346 327 313 301 301 297 294 283 257 231
176 216 191 252 246 241 227 221 182 174 197 182 167 164 166 171 178 178 177 177 168 157 158 151 148 143 147 132 122 131 123 64 327 339 9 38 12 3 1 359 335 330 317 305 298 290 282 269 246
219 268 273 290 285 275 266 236 207 222 181 167 161 164 175 180 184 180 177 172 161 157 157 148 140 135 134 111 97 96 102 95 40 23 13 39 34 4 1 351 355 343 324 311 305 298 293 281 259
170 66 304 292 296 314 302 280 196 225 166 162 165 174 183 182 178 171 171 166 165 163 157 146 137 138 127 112 104 106 96 74 61 50 37 43 46 21 3 353 353 344 331 320 307 309 300 284 269
81 38 344 287 263 292 318 302 238 205 164 167 177 182 185 187 177 173 174 167 166 164 154 147 142 133 122 114 106 100 92 93 72 47 43 42 42 37 28 4 350 334 334 346 354 345 350 337 314
65 61 309 283 248 252 140 258 263 205 174 180 187 188 186 191 183 177 168 162 161 156 150 148 136 128 120 115 107 99 92 92 87 69 45 34 31 39 39 14 344 335 347 359 2 6 359 344 327
43 27 273 297 281 222 181 250 265 230 192 195 196 194 188 191 188 174 165 161 161 157 150 139 133 134 128 116 105 95 93 97 112 90 51 26 23 30 40 15 337 342 358 358 350 28 9 337 322
155 189 259 260 264 217 234 260 264 247 214 207 201 194 188 187 191 172 162 159 156 153 146 139 135 136 124 104 87 66 60 56 88 120 18 21 9 20 39 13 345 352 8 360 1 1 345 311 304
147 171 232 248 240 218 236 251 259 251 224 210 202 196 194 195 184 162 154 150 148 149 146 145 143 146 131 113 111 102 89 293 302 274 270 318 334 2 31 1 348 354 5 341 350 9 357 345 360
156 202 255 279 259 232 253 265 261 237 217 203 194 196 196 187 164 164 157 155 159 159 155 153 153 151 147 147 154 165 176 219 240 282 305 286 278 310 2 15 344 345 2 6 13 43 35 352 29
212 205 222 241 312 315 333 318 299 283 228 196 191 191 187 182 175 174 167 164 160 162 163 160 159 154 154 145 113 77 54 29 13 335 305 295 278 301 359 0 358 359 51 356 333 65 99 35 353
221 220 208 209 36 312 52 306 302 297 239 202 200 189 187 186 176 172 170 168 169 170 162 154 156 155 156 143 130 134 141 175 240 246 264 291 291 291 303 339 9 30 62 350 313 75 115 112 47
208 210 203 248 100 335 334 167 294 327 231 226 214 200 189 182 175 175 176 173 170 163 158 155 153 155 157 149 145 144 153 197 246 273 312 315 310 306 304 318 15 36 23 337 12 37 73 105 124
152 66 33 40 64 347 274 157 281 265 231 223 214 204 189 178 174 172 168 160 161 158 154 152 153 161 163 158 155 162 167 173 175 293 324 303 297 307 307 291 321 335 341 351 38 60 79 81 88
80 77 33 12 13 276 285 150 257 267 247 203 196 198 184 171 168 167 167 169 168 165 163 159 158 167 174 170 174 178 177 177 191 211 217 227 267 278 279 275 274 269 253 312 65 63 54 71 90
154 131 144 170 242 294 343 331 272 285 277 192 168 168 168 171 176 178 180 177 174 172 169 165 168 174 180 181 186 187 181 178 197 208 203 207 220 238 252 255 256 255 232 126 86 68 30 89 100
131 157 163 135 121 339 323 319 317 331 356 35 130 150 175 182 185 186 183 180 177 176 177 174 175 178 185 187 184 188 189 188 199 204 198 210 228 239 243 243 241 250 214 151 123 89 330 111 141
152 151 99 103 117 336 319 307 265 273 265 256 216 202 202 193 191 190 187 186 185 183 181 177 176 182 187 187 188 190 195 197 199 193 207 221 234 231 212 213 206 201 193 164 136 150 249 102 264
62 94 110 117 146 145 289 281 245 239 244 237 236 226 212 202 197 194 192 190 187 182 178 180 184 183 187 191 192 189 198 202 200 206 219 222 226 219 213 207 196 186 186 169 148 185 180 153 300
181 179 145 139 227 160 169 268 287 271 264 246 246 243 226 210 203 196 190 183 182 186 187 188 188 188 192 191 188 193 200 196 198 213 221 219 226 232 225 212 199 197 190 172 172 198 195 194 214